GW5592 Weather Reports


time (UTC)temp
F
wind
direction
speed
knots
gust
knots
rain 1hr
in
rain 24hr
in
rain mn
in
humidity
%
barometer
mb
20260505022508 45 24 1.7 2.6 0.00 0.00 0.00 77 1015.5
20260505022010 45 12 0.9 2.6 0.00 0.00 0.00 77 1015.5
20260505021525 45 36 0.9 1.7 0.00 0.00 0.00 76 1015.5
20260505021002 46 24 0.9 1.7 0.00 0.00 0.00 76 1015.5
20260505020503 46 42 0.0 1.7 0.00 0.00 0.00 76 1015.5
20260505020011 46 28 0.0 1.7 0.00 0.00 0.00 75 1015.5
20260505015512 46 26 0.0 1.7 0.00 0.00 0.00 76 1015.6
20260505015005 46 26 0.0 1.7 0.00 0.00 0.00 75 1015.6
20260505014512 46 24 0.9 1.7 0.00 0.00 0.00 75 1015.6
20260505014006 46 40 0.0 1.7 0.00 0.00 0.00 74 1015.7
20260505013507 46 26 0.0 1.7 0.00 0.00 0.00 74 1015.7
20260505013021 47 50 0.0 1.7 0.00 0.00 0.00 74 1015.7
20260505012512 47 35 0.0 1.7 0.00 0.00 0.00 73 1015.7
20260505012008 48 42 0.0 1.7 0.00 0.00 0.00 72 1015.7
20260505011529 48 28 0.0 1.7 0.00 0.00 0.00 72 1015.7
20260505011014 48 44 0.9 1.7 0.00 0.00 0.00 73 1015.8
20260505010508 47 34 0.0 1.7 0.00 0.00 0.00 74 1015.8
20260505010024 47 38 0.0 1.7 0.00 0.00 0.00 75 1015.8
20260505005504 46 29 0.0 1.7 0.00 0.00 0.00 74 1015.9
20260505005005 47 29 0.0 1.7 0.00 0.00 0.00 74 1015.9
20260505004508 47 32 0.0 1.7 0.00 0.00 0.00 73 1015.9
20260505004003 47 44 0.0 0.9 0.00 0.00 0.00 73 1016.0
20260505003505 47 44 0.0 1.7 0.00 0.00 0.00 73 1016.0
20260505003018 47 44 0.0 1.7 0.00 0.00 0.00 72 1016.0
20260505002507 48 40 0.0 1.7 0.00 0.00 0.00 72 1016.0
20260505002007 48 15 0.9 1.7 0.00 0.00 0.00 71 1016.1
20260505001521 48 15 0.0 1.7 0.00 0.00 0.00 71 1016.2
20260505001005 48 35 0.0 1.7 0.00 0.00 0.00 72 1016.2
20260505000508 48 35 0.0 1.7 0.00 0.00 0.00 71 1016.2
20260505000029 49 36 0.0 1.7 0.00 0.00 0.00 70 1016.2
20260504235509 49 24 0.0 1.7 0.00 0.00 0.00 69 1016.2
20260504235008 49 42 0.0 1.7 0.00 0.00 0.00 69 1016.2
20260504234507 49 15 0.9 1.7 0.00 0.00 0.00 68 1016.2
20260504234004 49 42 0.9 1.7 0.00 0.00 0.00 69 1016.2
20260504233507 49 39 0.0 1.7 0.00 0.00 0.00 69 1016.2
20260504233014 49 26 0.9 1.7 0.00 0.00 0.00 69 1016.2
20260504232506 50 347 0.0 1.7 0.00 0.00 0.00 67 1016.2
20260504232006 51 38 0.0 1.7 0.00 0.00 0.00 66 1016.3
20260504231518 51 49 0.0 1.7 0.00 0.00 0.00 66 1016.3
20260504231010 51 49 0.0 1.7 0.00 0.00 0.00 65 1016.3
20260504230507 51 49 0.0 1.7 0.00 0.00 0.00 65 1016.4
20260504230023 51 35 0.0 1.7 0.00 0.00 0.00 65 1016.4
20260504225508 51 28 0.9 1.7 0.00 0.00 0.00 66 1016.3
20260504225009 51 29 0.0 2.6 0.00 0.00 0.00 65 1016.3
20260504224525 51 29 0.0 2.6 0.00 0.00 0.00 64 1016.3
20260504224009 53 18 0.0 0.0 0.00 0.00 0.00 67 1016.3
20260504223510 53 129 0.0 0.0 0.00 0.00 0.00 64 1016.2
20260504223011 53 88 0.0 0.0 0.00 0.00 0.00 63 1016.2
20260504222506 54 88 0.0 0.0 0.00 0.00 0.00 62 1016.3
20260504222014 54 88 0.0 0.0 0.00 0.00 0.00 62 1016.3
20260504221519 54 88 0.0 0.0 0.00 0.00 0.00 61 1016.4
20260504221007 53 88 0.0 0.0 0.00 0.00 0.00 62 1016.4
20260504220509 53 38 0.0 0.0 0.00 0.00 0.00 61 1016.4
20260504220022 53 38 0.0 0.0 0.00 0.00 0.00 62 1016.4
20260504215507 53 38 0.0 0.0 0.00 0.00 0.00 62 1016.3
20260504215013 54 17 0.0 0.0 0.00 0.00 0.00 61 1016.3
20260504214523 54 11 0.0 0.0 0.00 0.00 0.00 60 1016.3
20260504214011 55 92 0.0 0.0 0.00 0.00 0.00 59 1016.3
20260504213510 56 96 0.0 0.0 0.00 0.00 0.00 58 1016.4
20260504213045 56 96 0.0 0.0 0.00 0.00 0.00 59 1016.4
20260504212511 56 105 0.0 0.0 0.00 0.00 0.00 57 1016.4
20260504212007 56 105 0.0 0.0 0.00 0.00 0.00 57 1016.4
20260504211516 57 105 0.0 0.0 0.00 0.00 0.00 55 1016.4
20260504211005 57 105 0.0 0.0 0.00 0.00 0.00 54 1016.4
20260504210508 57 47 0.0 0.0 0.00 0.00 0.00 52 1016.4
20260504210018 57 34 0.0 0.0 0.00 0.00 0.00 52 1016.4
20260504205507 58 34 0.0 0.0 0.00 0.00 0.00 51 1016.4
20260504205006 58 34 0.0 0.0 0.00 0.00 0.00 52 1016.3
20260504204522 58 34 0.0 0.0 0.00 0.00 0.00 53 1016.3
20260504204010 58 94 0.0 0.0 0.00 0.00 0.00 53 1016.2
20260504203513 58 94 0.0 0.0 0.00 0.00 0.00 53 1016.1
20260504203024 58 82 0.0 0.0 0.00 0.00 0.00 53 1016.0
20260504202510 58 93 0.0 0.0 0.00 0.00 0.00 53 1016.0
20260504202010 59 68 0.0 0.9 0.00 0.00 0.00 52 1015.9
20260504201532 59 51 0.0 3.5 0.00 0.00 0.00 51 1015.8
20260504201013 59 327 0.0 3.5 0.00 0.00 0.00 51 1015.7
20260504200507 60 352 0.0 3.5 0.00 0.00 0.00 51 1015.7
20260504200016 60 281 0.0 3.5 0.00 0.00 0.00 52 1015.6
20260504195506 60 9 0.0 3.5 0.00 0.00 0.00 52 1015.5
20260504195006 60 318 0.0 3.5 0.00 0.00 0.00 52 1015.4
20260504194521 60 326 0.9 3.5 0.00 0.00 0.00 51 1015.3
20260504194006 61 339 1.7 3.5 0.00 0.00 0.00 52 1015.3
20260504193509 61 314 0.9 4.3 0.00 0.00 0.00 51 1015.2
20260504193024 61 309 1.7 5.2 0.00 0.00 0.00 50 1015.1
20260504192508 62 337 0.9 5.2 0.00 0.00 0.00 50 1015.1
20260504192009 62 312 0.0 1.7 0.00 0.00 0.00 51 1014.9
20260504191525 62 324 0.9 3.5 0.00 0.00 0.00 49 1014.9
20260504191016 63 342 0.9 5.2 0.00 0.00 0.00 49 1014.9
20260504190510 63 318 1.7 5.2 0.00 0.00 0.00 48 1014.9
20260504190027 63 321 1.7 5.2 0.00 0.00 0.00 47 1014.8
20260504185515 64 294 1.7 7.0 0.00 0.00 0.00 47 1014.7
20260504185007 64 302 2.6 7.0 0.00 0.00 0.00 47 1014.6
20260504184518 64 292 2.6 7.0 0.00 0.00 0.00 45 1014.7
20260504184006 65 327 0.9 7.0 0.00 0.00 0.00 44 1014.7
20260504183508 65 294 3.5 8.7 0.00 0.00 0.00 44 1014.6
20260504183024 65 321 2.6 10.4 0.00 0.00 0.00 45 1014.6
20260504182510 66 317 4.3 10.4 0.00 0.00 0.00 43 1014.5
20260504182011 66 296 5.2 9.6 0.00 0.00 0.00 43 1014.4
20260504181523 66 306 7.0 9.6 0.00 0.00 0.00 42 1014.4
20260504181010 67 327 3.5 7.8 0.00 0.00 0.00 41 1014.3
20260504180507 67 264 4.3 8.7 0.00 0.00 0.00 40 1014.3
20260504180010 67 323 3.5 8.7 0.00 0.00 0.00 40 1014.3
20260504175506 67 284 4.3 8.7 0.00 0.00 0.00 41 1014.2
20260504175009 68 271 3.5 7.8 0.00 0.00 0.00 41 1014.2
20260504174516 68 277 3.5 8.7 0.00 0.00 0.00 40 1014.2
20260504174007 68 241 3.5 8.7 0.00 0.00 0.00 39 1014.2
20260504173510 68 306 2.6 7.0 0.00 0.00 0.00 40 1014.3
20260504173031 68 289 4.3 10.4 0.00 0.00 0.00 40 1014.2
20260504172507 68 270 6.1 11.3 0.00 0.00 0.00 40 1014.3
20260504172011 68 311 7.0 10.4 0.00 0.00 0.00 39 1014.3
20260504171526 68 298 3.5 7.8 0.00 0.00 0.00 40 1014.3
20260504171009 69 284 3.5 10.4 0.00 0.00 0.00 40 1014.3
20260504170515 69 290 5.2 10.4 0.00 0.00 0.00 39 1014.3
20260504151013 69 215 4.3 7.8 0.00 0.00 0.00 40 1014.1
20260504150511 70 300 3.5 12.2 0.00 0.00 0.00 39 1014.1
20260504141011 71 230 5.2 9.6 0.00 0.00 0.00 41 1014.4
20260504140506 71 164 6.1 9.6 0.00 0.00 0.00 37 1014.3
20260504130510 70 243 3.5 7.8 0.00 0.00 0.00 40 1014.9
20260504110507 67 283 6.1 9.6 0.00 0.00 0.00 46 1015.8
20260504100505 64 232 4.3 9.6 0.00 0.00 0.00 59 1015.9
20260504082002 58 150 0.0 4.3 0.00 0.00 0.00 74 1015.9
20260504081505 58 192 0.9 4.3 0.00 0.00 0.00 74 1015.9
20260504081004 58 162 1.7 4.3 0.00 0.00 0.00 75 1015.8
20260504080503 58 255 2.6 4.3 0.00 0.00 0.00 75 1015.8
20260504050503 53 247 0.0 0.0 0.00 0.00 0.00 80 1015.0
20260504050004 53 247 0.0 1.7 0.00 0.00 0.00 81 1015.0
20260504045504 53 247 0.0 1.7 0.00 0.00 0.00 82 1015.0
20260504045007 52 319 0.0 0.0 0.00 0.00 0.00 81 1014.9
20260504044525 52 15 0.0 0.0 0.00 0.00 0.00 81 1014.8
20260504044006 52 128 0.0 0.0 0.00 0.00 0.00 80 1014.8
20260504043504 53 145 0.0 0.0 0.00 0.00 0.00 80 1014.7
20260504043020 53 163 0.0 0.0 0.00 0.00 0.00 81 1014.6
20260504042507 53 153 0.0 0.0 0.00 0.00 0.00 81 1014.7
20260504042009 53 38 0.0 0.0 0.00 0.00 0.00 80 1014.6
20260504041522 53 38 0.0 0.0 0.00 0.00 0.00 80 1014.7
20260504041009 52 38 0.0 0.0 0.00 0.00 0.00 81 1014.7
20260504040510 52 38 0.0 0.0 0.00 0.00 0.00 80 1014.8
20260504040026 52 38 0.0 0.0 0.00 0.00 0.00 80 1014.8
20260504035508 52 38 0.0 0.0 0.00 0.00 0.00 80 1014.8
20260504035004 52 38 0.0 0.0 0.00 0.00 0.00 81 1014.9
20260504034507 52 38 0.0 0.0 0.00 0.00 0.00 81 1014.9
20260504034004 52 38 0.0 0.0 0.00 0.00 0.00 80 1014.8
20260504033508 52 38 0.0 0.9 0.00 0.00 0.00 80 1014.8
20260504033013 52 38 0.0 0.9 0.00 0.00 0.00 79 1014.8
20260504032504 53 56 0.0 0.0 0.00 0.00 0.00 78 1014.8
20260504032009 54 168 0.0 0.0 0.00 0.00 0.00 78 1014.9
20260504031520 54 168 0.0 0.9 0.00 0.00 0.00 78 1015.0
20260504031008 54 168 0.0 1.7 0.00 0.00 0.00 79 1014.9
20260504030506 53 167 0.0 0.9 0.00 0.00 0.00 79 1015.0
20260504030023 53 155 0.0 0.0 0.00 0.00 0.00 78 1015.0
20260504025507 54 155 0.0 0.0 0.00 0.00 0.00 78 1015.1
20260504025006 54 144 0.0 0.0 0.00 0.00 0.00 78 1015.0
20260504024524 54 143 0.0 0.0 0.00 0.00 0.00 78 1015.1
20260504024007 53 143 0.0 0.9 0.00 0.00 0.00 78 1015.0
20260504023503 53 143 0.0 0.9 0.00 0.00 0.00 78 1015.1
20260504023008 54 161 0.0 0.0 0.00 0.00 0.00 77 1015.2